This is the latest recevied weather packets stored in our database for station/object OK2ZI. If no packets are shown the sender has not sent any weather packets the latest 10 day(s).
| Time | Temp. | Humidity | Pressure | Rain* | Wind** | Luminosity | Snow |
|---|---|---|---|---|---|---|---|
| 1777728625 | 22.78° C | 26% | 1019 hPa | 0 mm | - | - | - |
| 1777727167 | 24.44° C | 26% | 1019 hPa | 0 mm | - | - | - |
| 1777727047 | 24.44° C | 26% | 1019 hPa | 0 mm | - | - | - |
| 1777725847 | 23.33° C | 26% | 1019 hPa | 0 mm | - | - | - |
| 1777725612 | 22.78° C | 27% | 1020 hPa | 0 mm | - | - | - |
| 1777725486 | 22.78° C | 28% | 1020 hPa | 0 mm | - | - | - |
| 1777725249 | 22.78° C | 28% | 1020 hPa | 0 mm | - | - | - |
| 1777724412 | 21.11° C | 32% | 1020 hPa | 0 mm | - | - | - |
| 1777723813 | 21.67° C | 31% | 1020 hPa | 0 mm | - | - | - |
| 1777723687 | 21.67° C | 31% | 1020 hPa | 0 mm | - | - | - |
| 1777723331 | 21.67° C | 34% | 1020 hPa | 0 mm | - | - | - |
| 1777722490 | 21.11° C | 37% | 1020 hPa | 0 mm | - | - | - |
| 1777721047 | 20.56° C | 38% | 1020 hPa | 0 mm | - | - | - |
| 1777720826 | 20.56° C | 38% | 1020 hPa | 0 mm | - | - | - |
| 1777720447 | 21.11° C | 33% | 1020 hPa | 0 mm | - | - | - |
| 1777720326 | 21.11° C | 34% | 1020 hPa | 0 mm | - | - | - |
| 1777719968 | 20° C | 38% | 1020 hPa | 0 mm | - | - | - |
| 1777718414 | 21.67° C | 33% | 1021 hPa | 0 mm | - | - | - |
| 1777716613 | 21.11° C | 31% | 1021 hPa | 0 mm | - | - | - |
| 1777716128 | 20° C | 34% | 1021 hPa | 0 mm | - | - | - |
| 1777714087 | 19.44° C | 36% | 1022 hPa | 0 mm | - | - | - |
| 1777713487 | 20.56° C | 33% | 1022 hPa | 0 mm | - | - | - |
| 1777712171 | 20° C | 36% | 1022 hPa | 0 mm | - | - | - |
| 1777711447 | 18.89° C | 38% | 1022 hPa | 0 mm | - | - | - |
| 1777710966 | 17.78° C | 37% | 1022 hPa | 0 mm | - | - | - |
* Rain latest hour (hover to see other rain measurements)
** Current wind speed in m/s (hover to see current wind gust speed)